QPF
0.00 0.00 0.00 0.00 0.00 0.00 0.00 0.00 0.00 0.00 0.00 0.00 0.00 0.00 0.00 0.01 0.01 0.01 0.01 0.01 0.01 0.01 0.01 0.01 0.01 0.01 0.01 0.01 0.01 0.01 0.00 0.00 0.00 0.00 0.00 0.00 0.00 0.00 0.00 0.00 0.00 0.00 0.00
0.00 0.00 0.00 0.00 0.00 0.00 0.00 0.00 0.00 0.00 0.00 0.00 0.00 0.00 0.01 0.01 0.01 0.01 0.01 0.01 0.01 0.01 0.01 0.01 0.01 0.01 0.01 0.01 0.01 0.00 0.00 0.00 0.00 0.00 0.00 0.00 0.00 0.00 0.00 0.00 0.00 0.00 0.00
0.00 0.00 0.00 0.00 0.00 0.00 0.00 0.00 0.00 0.00 0.00 0.00 0.00 0.00 0.00 0.00 0.01 0.01 0.01 0.01 0.01 0.01 0.01 0.01 0.01 0.01 0.00 0.00 0.00 0.00 0.00 0.00 0.00 0.00 0.00 0.00 0.00 0.00 0.00 0.00 0.00 0.00 0.00
0.00 0.00 0.00 0.00 0.00 0.00 0.00 0.00 0.00 0.00 0.00 0.00 0.00 0.00 0.00 0.00 0.01 0.01 0.01 0.01 0.01 0.01 0.01 0.01 0.01 0.01 0.00 0.00 0.00 0.00 0.00 0.00 0.00 0.00 0.00 0.00 0.00 0.00 0.00 0.00 0.00 0.00 0.00
0.00 0.00 0.00 0.00 0.00 0.00 0.00 0.00 0.00 0.00 0.00 0.00 0.00 0.00 0.00 0.00 0.00 0.01 0.01 0.01 0.01 0.01 0.01 0.01 0.00 0.01 0.00 0.00 0.00 0.00 0.00 0.00 0.00 0.00 0.00 0.00 0.00 0.00 0.00 0.00 0.00 0.00 0.00
0.00 0.00 0.00 0.00 0.00 0.00 0.00 0.00 0.00 0.00 0.00 0.00 0.00 0.00 0.00 0.00 0.01 0.01 0.01 0.01 0.01 0.01 0.01 0.01 0.01 0.01 0.00 0.00 0.00 0.00 0.00 0.00 0.00 0.00 0.00 0.00 0.00 0.00 0.00 0.00 0.00 0.01 0.01
0.00 0.00 0.00 0.00 0.00 0.00 0.00 0.00 0.00 0.00 0.00 0.01 0.00 0.00 0.00 0.00 0.01 0.01 0.01 0.00 0.00 0.00 0.00 0.00 0.00 0.00 0.00 0.00 0.00 0.00 0.00 0.00 0.00 0.00 0.00 0.00 0.00 0.00 0.01 0.01 0.01 0.01 0.01
0.00 0.00 0.00 0.00 0.00 0.00 0.00 0.00 0.00 0.00 0.00 0.00 0.00 0.00 0.00 0.00 0.01 0.00 0.01 0.00 0.00 0.00 0.00 0.00 0.00 0.00 0.00 0.00 0.00 0.00 0.00 0.00 0.00 0.00 0.00 0.00 0.00 0.00 0.01 0.01 0.01 0.01 0.01
0.00 0.00 0.00 0.00 0.00 0.00 0.00 0.00 0.00 0.00 0.00 0.00 0.00 0.00 0.00 0.00 0.01 0.01 0.01 0.01 0.01 0.01 0.00 0.00 0.00 0.00 0.00 0.00 0.01 0.00 0.00 0.00 0.00 0.00 0.00 0.00 0.00 0.00 0.01 0.01 0.01 0.01 0.01
0.00 0.00 0.00 0.00 0.00 0.00 0.00 0.00 0.00 0.00 0.00 0.00 0.00 0.00 0.00 0.00 0.00 0.00 0.00 0.00 0.00 0.00 0.01 0.01 0.01 0.00 0.00 0.01 0.01 0.01 0.00 0.00 0.00 0.00 0.00 0.00 0.00 0.00 0.00 0.01 0.01 0.02 0.02
0.00 0.00 0.00 0.00 0.00 0.00 0.00 0.00 0.00 0.00 0.00 0.00 0.00 0.00 0.00 0.00 0.00 0.00 0.00 0.00 0.00 0.00 0.00 0.00 0.00 0.00 0.00 0.01 0.01 0.01 0.00 0.00 0.00 0.00 0.00 0.00 0.00 0.00 0.00 0.00 0.01 0.01 0.02
0.00 0.00 0.00 0.00 0.00 0.00 0.00 0.00 0.00 0.00 0.00 0.00 0.00 0.00 0.00 0.00 0.00 0.00 0.00 0.00 0.00 0.00 0.00 0.00 0.00 0.00 0.00 0.00 0.00 0.00 0.00 0.00 0.00 0.00 0.00 0.00 0.00 0.00 0.00 0.00 0.00 0.01 0.01
0.00 0.00 0.00 0.00 0.00 0.00 0.00 0.00 0.00 0.00 0.00 0.00 0.00 0.00 0.00 0.00 0.00 0.00 0.00 0.00 0.00 0.00 0.00 0.00 0.00 0.00 0.00 0.00 0.00 0.00 0.00 0.00 0.00 0.01 0.01 0.01 0.00 0.00 0.00 0.00 0.00 0.00 0.00
0.00 0.00 0.00 0.00 0.00 0.00 0.00 0.00 0.00 0.00 0.00 0.00 0.00 0.00 0.00 0.00 0.00 0.00 0.00 0.00 0.00 0.00 0.00 0.00 0.00 0.00 0.00 0.00 0.00 0.00 0.00 0.00 0.01 0.01 0.01 0.00 0.00 0.00 0.00 0.00 0.01 0.00 0.00
0.00 0.00 0.00 0.00 0.00 0.00 0.00 0.00 0.00 0.00 0.00 0.00 0.00 0.00 0.00 0.00 0.00 0.00 0.00 0.00 0.00 0.00 0.00 0.00 0.00 0.00 0.00 0.00 0.00 0.00 0.00 0.00 0.00 0.00 0.00 0.00 0.01 0.01 0.00 0.00 0.01 0.01 0.01
0.00 0.00 0.00 0.00 0.00 0.00 0.00 0.00 0.00 0.00 0.00 0.00 0.00 0.00 0.00 0.00 0.00 0.00 0.00 0.00 0.00 0.00 0.00 0.00 0.00 0.00 0.00 0.00 0.00 0.00 0.00 0.00 0.00 0.00 0.00 0.01 0.01 0.01 0.01 0.01 0.01 0.01 0.01
0.00 0.00 0.00 0.00 0.00 0.00 0.00 0.00 0.00 0.00 0.00 0.00 0.00 0.00 0.00 0.00 0.00 0.00 0.00 0.00 0.00 0.00 0.00 0.00 0.00 0.00 0.00 0.00 0.00 0.00 0.00 0.00 0.00 0.00 0.00 0.01 0.01 0.01 0.01 0.01 0.01 0.01 0.01
0.00 0.00 0.00 0.00 0.00 0.00 0.00 0.00 0.00 0.00 0.00 0.00 0.00 0.00 0.00 0.00 0.00 0.00 0.00 0.00 0.00 0.00 0.00 0.00 0.00 0.00 0.00 0.00 0.00 0.00 0.00 0.00 0.00 0.00 0.00 0.00 0.01 0.01 0.01 0.01 0.01 0.01 0.01
0.00 0.00 0.00 0.00 0.00 0.00 0.00 0.00 0.00 0.00 0.00 0.00 0.00 0.00 0.00 0.00 0.00 0.00 0.00 0.00 0.00 0.00 0.00 0.00 0.00 0.00 0.00 0.00 0.00 0.00 0.00 0.00 0.00 0.00 0.00 0.00 0.00 0.00 0.01 0.01 0.01 0.01 0.01
0.00 0.00 0.00 0.00 0.00 0.00 0.00 0.00 0.00 0.00 0.00 0.00 0.00 0.00 0.00 0.00 0.00 0.00 0.00 0.00 0.00 0.00 0.00 0.00 0.00 0.00 0.00 0.00 0.00 0.00 0.00 0.00 0.00 0.00 0.00 0.00 0.00 0.00 0.01 0.01 0.01 0.01 0.01
0.00 0.00 0.00 0.00 0.00 0.00 0.00 0.00 0.00 0.00 0.00 0.00 0.00 0.00 0.00 0.00 0.00 0.00 0.00 0.00 0.00 0.00 0.00 0.00 0.00 0.00 0.00 0.00 0.00 0.00 0.00 0.00 0.00 0.00 0.00 0.00 0.00 0.00 0.00 0.01 0.01 0.01 0.01
0.00 0.00 0.00 0.00 0.00 0.00 0.00 0.00 0.00 0.00 0.00 0.00 0.00 0.00 0.00 0.00 0.00 0.00 0.00 0.00 0.00 0.00 0.00 0.00 0.00 0.00 0.00 0.00 0.00 0.00 0.00 0.00 0.00 0.00 0.00 0.00 0.00 0.00 0.01 0.00 0.00 0.00 0.00
0.00 0.00 0.00 0.00 0.00 0.00 0.00 0.00 0.00 0.00 0.00 0.00 0.00 0.00 0.00 0.00 0.00 0.00 0.00 0.00 0.00 0.00 0.00 0.00 0.00 0.00 0.00 0.00 0.00 0.00 0.00 0.00 0.00 0.00 0.00 0.00 0.00 0.00 0.00 0.01 0.00 0.00 0.00
0.00 0.00 0.00 0.00 0.00 0.00 0.00 0.00 0.00 0.00 0.00 0.00 0.00 0.00 0.00 0.00 0.00 0.00 0.00 0.00 0.00 0.00 0.00 0.00 0.00 0.00 0.00 0.00 0.00 0.00 0.00 0.00 0.00 0.00 0.00 0.01 0.01 0.01 0.01 0.01 0.00 0.00 0.00
0.00 0.00 0.00 0.00 0.00 0.00 0.00 0.00 0.00 0.00 0.00 0.00 0.00 0.00 0.00 0.00 0.00 0.00 0.00 0.00 0.00 0.00 0.00 0.00 0.00 0.00 0.00 0.00 0.00 0.00 0.00 0.00 0.00 0.01 0.01 0.01 0.01 0.01 0.01 0.01 0.00 0.00 0.00
0.00 0.00 0.00 0.00 0.00 0.00 0.00 0.00 0.00 0.00 0.00 0.00 0.00 0.00 0.00 0.00 0.00 0.00 0.00 0.00 0.00 0.00 0.00 0.00 0.00 0.00 0.00 0.00 0.00 0.00 0.00 0.00 0.01 0.01 0.01 0.02 0.01 0.01 0.01 0.01 0.00 0.00 0.00
MSLP
1001.24 1002.04 1002.83 1003.64 1004.45 1005.29 1006.17 1007.07 1008.00 1008.93 1009.83 1010.66 1011.42 1012.08 1012.67 1013.18 1013.67 1014.14 1014.63 1015.16 1015.71 1016.27 1016.81 1017.31 1017.76 1018.13 1018.43 1018.68 1018.91 1019.14 1019.40 1019.71 1020.06 1020.44 1020.83 1021.20 1021.53 1021.79 1021.97 1022.08 1022.12 1022.11 1022.05
1000.50 1001.28 1002.08 1002.91 1003.76 1004.65 1005.58 1006.55 1007.54 1008.51 1009.43 1010.29 1011.04 1011.70 1012.26 1012.75 1013.20 1013.64 1014.11 1014.62 1015.15 1015.71 1016.27 1016.80 1017.27 1017.67 1018.01 1018.30 1018.55 1018.81 1019.08 1019.39 1019.73 1020.09 1020.46 1020.80 1021.09 1021.31 1021.45 1021.53 1021.53 1021.49 1021.42
999.98 1000.75 1001.54 1002.36 1003.23 1004.15 1005.12 1006.12 1007.14 1008.14 1009.09 1009.96 1010.72 1011.37 1011.92 1012.39 1012.83 1013.26 1013.71 1014.19 1014.72 1015.28 1015.83 1016.37 1016.85 1017.27 1017.63 1017.94 1018.21 1018.48 1018.75 1019.05 1019.38 1019.72 1020.06 1020.37 1020.63 1020.83 1020.94 1020.99 1020.97 1020.91 1020.81
999.71 1000.46 1001.23 1002.04 1002.90 1003.81 1004.78 1005.79 1006.82 1007.84 1008.80 1009.68 1010.44 1011.10 1011.66 1012.14 1012.57 1013.00 1013.45 1013.93 1014.45 1014.99 1015.54 1016.06 1016.54 1016.95 1017.31 1017.61 1017.87 1018.13 1018.39 1018.68 1018.99 1019.31 1019.63 1019.92 1020.16 1020.34 1020.45 1020.48 1020.45 1020.38 1020.27
999.68 1000.41 1001.15 1001.93 1002.76 1003.64 1004.59 1005.58 1006.59 1007.60 1008.56 1009.44 1010.22 1010.90 1011.47 1011.98 1012.43 1012.88 1013.33 1013.82 1014.33 1014.86 1015.39 1015.88 1016.33 1016.72 1017.04 1017.31 1017.55 1017.77 1018.01 1018.26 1018.54 1018.84 1019.15 1019.43 1019.67 1019.85 1019.96 1020.01 1019.98 1019.91 1019.80
999.86 1000.57 1001.28 1002.02 1002.80 1003.64 1004.54 1005.49 1006.47 1007.44 1008.39 1009.27 1010.06 1010.76 1011.37 1011.91 1012.40 1012.87 1013.35 1013.84 1014.35 1014.86 1015.35 1015.81 1016.21 1016.55 1016.82 1017.04 1017.22 1017.40 1017.59 1017.80 1018.05 1018.33 1018.62 1018.90 1019.15 1019.34 1019.48 1019.54 1019.54 1019.49 1019.39
1000.17 1000.88 1001.58 1002.28 1003.01 1003.79 1004.63 1005.53 1006.46 1007.40 1008.32 1009.19 1009.99 1010.71 1011.35 1011.92 1012.45 1012.95 1013.45 1013.95 1014.44 1014.93 1015.39 1015.79 1016.14 1016.41 1016.62 1016.77 1016.89 1017.01 1017.15 1017.31 1017.52 1017.77 1018.04 1018.32 1018.58 1018.80 1018.97 1019.07 1019.11 1019.08 1019.01
1000.55 1001.28 1001.97 1002.65 1003.35 1004.08 1004.87 1005.71 1006.59 1007.48 1008.37 1009.22 1010.02 1010.74 1011.40 1012.00 1012.55 1013.07 1013.58 1014.07 1014.55 1015.01 1015.42 1015.78 1016.06 1016.27 1016.42 1016.51 1016.57 1016.63 1016.71 1016.83 1016.99 1017.21 1017.46 1017.73 1017.99 1018.23 1018.43 1018.57 1018.65 1018.66 1018.63
1000.97 1001.71 1002.41 1003.09 1003.78 1004.48 1005.23 1006.03 1006.86 1007.71 1008.56 1009.38 1010.15 1010.87 1011.52 1012.12 1012.67 1013.19 1013.69 1014.16 1014.62 1015.04 1015.41 1015.72 1015.96 1016.12 1016.22 1016.26 1016.28 1016.29 1016.32 1016.39 1016.52 1016.69 1016.91 1017.16 1017.42 1017.66 1017.88 1018.04 1018.16 1018.22 1018.23
1001.37 1002.15 1002.88 1003.58 1004.27 1004.97 1005.70 1006.47 1007.27 1008.08 1008.88 1009.66 1010.40 1011.08 1011.71 1012.28 1012.81 1013.30 1013.77 1014.21 1014.63 1015.01 1015.34 1015.62 1015.83 1015.97 1016.04 1016.06 1016.05 1016.04 1016.04 1016.07 1016.15 1016.28 1016.46 1016.67 1016.90 1017.13 1017.34 1017.52 1017.67 1017.76 1017.81
1001.77 1002.59 1003.36 1004.09 1004.81 1005.53 1006.27 1007.02 1007.80 1008.58 1009.34 1010.08 1010.77 1011.40 1011.98 1012.50 1012.97 1013.42 1013.83 1014.23 1014.61 1014.95 1015.26 1015.52 1015.72 1015.86 1015.94 1015.97 1015.96 1015.94 1015.92 1015.92 1015.96 1016.03 1016.15 1016.31 1016.49 1016.68 1016.87 1017.04 1017.19 1017.31 1017.39
1002.16 1003.03 1003.85 1004.63 1005.39 1006.15 1006.91 1007.67 1008.44 1009.20 1009.93 1010.62 1011.26 1011.83 1012.34 1012.79 1013.21 1013.59 1013.95 1014.29 1014.63 1014.95 1015.24 1015.50 1015.71 1015.87 1015.98 1016.03 1016.04 1016.03 1016.00 1015.98 1015.98 1016.00 1016.05 1016.13 1016.24 1016.36 1016.50 1016.65 1016.78 1016.91 1017.01
1002.59 1003.50 1004.37 1005.20 1006.02 1006.82 1007.62 1008.40 1009.18 1009.92 1010.63 1011.28 1011.87 1012.38 1012.82 1013.21 1013.56 1013.87 1014.17 1014.47 1014.77 1015.07 1015.36 1015.63 1015.87 1016.07 1016.22 1016.31 1016.35 1016.35 1016.32 1016.27 1016.22 1016.18 1016.15 1016.14 1016.16 1016.20 1016.27 1016.36 1016.47 1016.58 1016.69
1003.05 1003.99 1004.91 1005.81 1006.68 1007.53 1008.37 1009.19 1009.99 1010.73 1011.43 1012.05 1012.59 1013.06 1013.45 1013.78 1014.07 1014.33 1014.59 1014.85 1015.12 1015.41 1015.71 1016.00 1016.27 1016.50 1016.69 1016.82 1016.89 1016.90 1016.86 1016.78 1016.67 1016.55 1016.43 1016.33 1016.25 1016.20 1016.19 1016.22 1016.28 1016.36 1016.46
1003.55 1004.53 1005.50 1006.44 1007.37 1008.28 1009.17 1010.03 1010.84 1011.60 1012.30 1012.91 1013.43 1013.87 1014.23 1014.53 1014.78 1015.01 1015.23 1015.47 1015.73 1016.02 1016.32 1016.63 1016.92 1017.18 1017.39 1017.55 1017.63 1017.63 1017.57 1017.44 1017.27 1017.07 1016.86 1016.66 1016.48 1016.34 1016.25 1016.20 1016.21 1016.26 1016.34
1004.07 1005.10 1006.11 1007.10 1008.08 1009.04 1009.98 1010.87 1011.72 1012.51 1013.22 1013.84 1014.36 1014.80 1015.15 1015.43 1015.68 1015.90 1016.11 1016.35 1016.60 1016.89 1017.19 1017.50 1017.80 1018.06 1018.28 1018.43 1018.49 1018.47 1018.36 1018.19 1017.95 1017.67 1017.37 1017.07 1016.80 1016.58 1016.41 1016.30 1016.26 1016.27 1016.32
1004.63 1005.68 1006.73 1007.77 1008.80 1009.81 1010.79 1011.73 1012.61 1013.43 1014.16 1014.80 1015.34 1015.79 1016.16 1016.46 1016.72 1016.95 1017.17 1017.41 1017.66 1017.94 1018.24 1018.53 1018.82 1019.06 1019.25 1019.36 1019.39 1019.32 1019.16 1018.91 1018.60 1018.25 1017.87 1017.50 1017.16 1016.87 1016.64 1016.48 1016.40 1016.37 1016.39
1005.19 1006.28 1007.37 1008.45 1009.52 1010.57 1011.59 1012.56 1013.48 1014.33 1015.09 1015.76 1016.34 1016.82 1017.22 1017.55 1017.83 1018.08 1018.32 1018.57 1018.82 1019.09 1019.36 1019.63 1019.87 1020.07 1020.21 1020.26 1020.23 1020.09 1019.87 1019.56 1019.19 1018.77 1018.33 1017.91 1017.52 1017.18 1016.91 1016.72 1016.60 1016.55 1016.54
1005.78 1006.90 1008.02 1009.14 1010.24 1011.33 1012.38 1013.38 1014.33 1015.20 1015.99 1016.70 1017.30 1017.82 1018.25 1018.62 1018.93 1019.21 1019.47 1019.71 1019.96 1020.21 1020.45 1020.67 1020.85 1020.99 1021.06 1021.04 1020.94 1020.74 1020.45 1020.08 1019.66 1019.20 1018.73 1018.27 1017.86 1017.50 1017.21 1017.00 1016.87 1016.79 1016.76
1006.40 1007.55 1008.69 1009.84 1010.97 1012.08 1013.15 1014.17 1015.14 1016.03 1016.84 1017.57 1018.20 1018.74 1019.21 1019.60 1019.94 1020.24 1020.51 1020.75 1020.98 1021.20 1021.39 1021.55 1021.67 1021.74 1021.74 1021.65 1021.48 1021.22 1020.88 1020.48 1020.03 1019.55 1019.06 1018.60 1018.18 1017.82 1017.53 1017.32 1017.17 1017.08 1017.03
1007.08 1008.24 1009.41 1010.57 1011.71 1012.83 1013.91 1014.94 1015.91 1016.80 1017.62 1018.35 1018.99 1019.55 1020.04 1020.45 1020.81 1021.11 1021.38 1021.61 1021.81 1021.99 1022.13 1022.23 1022.29 1022.29 1022.22 1022.07 1021.85 1021.55 1021.19 1020.77 1020.31 1019.83 1019.36 1018.91 1018.51 1018.17 1017.89 1017.68 1017.52 1017.42 1017.35
1007.83 1009.00 1010.17 1011.33 1012.48 1013.59 1014.66 1015.67 1016.63 1017.51 1018.31 1019.04 1019.68 1020.24 1020.73 1021.14 1021.50 1021.79 1022.05 1022.26 1022.42 1022.55 1022.64 1022.69 1022.69 1022.63 1022.51 1022.32 1022.07 1021.76 1021.39 1020.98 1020.54 1020.10 1019.66 1019.24 1018.87 1018.55 1018.28 1018.07 1017.92 1017.80 1017.71
1008.66 1009.82 1010.98 1012.13 1013.25 1014.34 1015.38 1016.37 1017.29 1018.14 1018.92 1019.63 1020.25 1020.80 1021.27 1021.68 1022.02 1022.30 1022.52 1022.70 1022.83 1022.91 1022.95 1022.95 1022.90 1022.80 1022.65 1022.44 1022.19 1021.88 1021.54 1021.16 1020.77 1020.36 1019.97 1019.59 1019.26 1018.96 1018.71 1018.51 1018.34 1018.21 1018.09
1009.56 1010.69 1011.82 1012.94 1014.03 1015.07 1016.07 1017.01 1017.89 1018.71 1019.45 1020.12 1020.72 1021.24 1021.70 1022.08 1022.39 1022.65 1022.84 1022.98 1023.07 1023.11 1023.11 1023.07 1022.98 1022.85 1022.69 1022.48 1022.24 1021.96 1021.65 1021.33 1020.98 1020.63 1020.29 1019.97 1019.67 1019.39 1019.16 1018.95 1018.78 1018.63 1018.49
1010.48 1011.58 1012.67 1013.74 1014.78 1015.77 1016.72 1017.61 1018.44 1019.20 1019.91 1020.54 1021.11 1021.60 1022.03 1022.39 1022.67 1022.90 1023.06 1023.16 1023.21 1023.21 1023.17 1023.09 1022.98 1022.83 1022.66 1022.47 1022.24 1022.00 1021.75 1021.47 1021.19 1020.90 1020.61 1020.33 1020.07 1019.82 1019.60 1019.39 1019.21 1019.05 1018.89
1011.41 1012.47 1013.51 1014.52 1015.50 1016.43 1017.31 1018.14 1018.92 1019.64 1020.30 1020.90 1021.43 1021.91 1022.31 1022.64 1022.90 1023.09 1023.22 1023.29 1023.30 1023.26 1023.18 1023.07 1022.93 1022.77 1022.60 1022.41 1022.22 1022.01 1021.80 1021.58 1021.35 1021.11 1020.88 1020.65 1020.42 1020.20 1019.99 1019.80 1019.61 1019.44 1019.27
Thickness
5677 5675 5671 5668 5665 5660 5655 5652 5647 5642 5637 5631 5625 5618 5612 5605 5599 5592 5586 5579 5573 5567 5561 5555 5550 5543 5537 5530 5524 5518 5513 5508 5505 5503 5494 5487 5479 5473 5467 5461 5456 5451 5448
5671 5669 5666 5663 5659 5654 5651 5647 5642 5637 5632 5626 5620 5613 5607 5601 5594 5588 5582 5575 5569 5563 5557 5550 5544 5537 5531 5525 5518 5513 5507 5501 5496 5492 5486 5478 5470 5463 5457 5451 5446 5441 5436
5664 5662 5659 5656 5653 5650 5646 5642 5636 5631 5626 5620 5614 5609 5603 5596 5590 5584 5577 5571 5564 5559 5552 5546 5539 5532 5526 5519 5512 5506 5499 5492 5485 5480 5476 5469 5461 5453 5447 5441 5435 5429 5424
5656 5655 5653 5651 5649 5645 5641 5636 5631 5626 5620 5615 5609 5603 5597 5590 5583 5577 5571 5565 5558 5552 5546 5539 5533 5526 5521 5514 5506 5499 5491 5483 5476 5469 5464 5458 5451 5443 5434 5429 5425 5419 5412
5649 5648 5647 5645 5642 5638 5633 5629 5624 5618 5613 5608 5602 5596 5589 5583 5577 5570 5564 5557 5551 5545 5538 5531 5525 5519 5512 5506 5498 5491 5482 5474 5466 5459 5452 5446 5439 5431 5424 5418 5411 5405 5400
5642 5641 5639 5637 5634 5630 5626 5621 5616 5610 5605 5600 5594 5588 5582 5576 5570 5563 5557 5550 5544 5538 5531 5524 5517 5510 5503 5496 5489 5481 5474 5466 5457 5449 5442 5435 5429 5421 5413 5403 5395 5390 5385
5635 5633 5631 5629 5625 5621 5617 5612 5608 5603 5598 5592 5587 5581 5575 5568 5562 5556 5549 5544 5537 5531 5524 5517 5509 5502 5494 5487 5479 5471 5463 5454 5446 5439 5432 5425 5417 5409 5399 5390 5381 5374 5368
5628 5625 5623 5620 5617 5613 5608 5605 5600 5595 5590 5585 5579 5574 5567 5561 5554 5548 5541 5536 5529 5523 5516 5509 5502 5494 5486 5478 5470 5462 5454 5446 5436 5428 5421 5412 5402 5393 5383 5375 5367 5361 5354
5620 5618 5615 5613 5609 5605 5601 5597 5592 5587 5581 5576 5571 5565 5560 5552 5545 5539 5533 5527 5520 5513 5506 5499 5492 5486 5477 5469 5461 5453 5444 5436 5425 5416 5407 5398 5389 5379 5369 5361 5353 5345 5341
5614 5611 5608 5605 5602 5598 5593 5588 5583 5578 5572 5566 5560 5555 5551 5544 5536 5530 5524 5519 5512 5505 5497 5489 5481 5475 5467 5458 5452 5443 5433 5425 5415 5406 5396 5387 5377 5367 5357 5348 5339 5331 5325
5606 5603 5600 5597 5594 5589 5584 5578 5573 5567 5561 5555 5549 5544 5539 5534 5526 5520 5515 5510 5503 5496 5487 5479 5472 5463 5456 5448 5440 5432 5422 5413 5404 5394 5385 5375 5365 5355 5345 5335 5325 5316 5309
5597 5594 5590 5587 5583 5578 5574 5568 5563 5557 5551 5545 5539 5532 5527 5522 5516 5510 5504 5499 5492 5486 5478 5470 5462 5453 5444 5436 5428 5419 5409 5400 5391 5381 5372 5362 5353 5343 5333 5324 5314 5305 5297
5588 5584 5580 5576 5572 5568 5565 5559 5553 5548 5542 5536 5530 5523 5516 5511 5505 5499 5493 5487 5480 5474 5466 5458 5450 5441 5433 5424 5415 5406 5397 5387 5378 5368 5359 5349 5339 5330 5321 5312 5304 5296 5288
5581 5575 5570 5566 5561 5557 5552 5548 5544 5539 5534 5527 5520 5514 5507 5501 5495 5488 5482 5475 5467 5461 5453 5445 5436 5428 5420 5411 5402 5393 5384 5374 5364 5355 5345 5336 5326 5317 5309 5301 5294 5287 5281
5572 5565 5560 5556 5552 5546 5540 5536 5532 5529 5526 5520 5513 5507 5499 5492 5485 5479 5473 5465 5458 5450 5441 5433 5425 5417 5408 5400 5390 5380 5371 5361 5351 5341 5331 5322 5313 5305 5298 5290 5283 5277 5271
5563 5557 5551 5546 5541 5535 5529 5520 5514 5513 5508 5504 5500 5495 5488 5482 5473 5467 5460 5453 5445 5438 5430 5422 5414 5406 5397 5388 5378 5368 5358 5348 5338 5328 5319 5310 5302 5294 5287 5280 5273 5267 5262
5558 5550 5543 5538 5533 5527 5520 5515 5505 5496 5492 5489 5485 5480 5475 5468 5462 5455 5448 5440 5433 5426 5419 5411 5403 5394 5385 5375 5365 5355 5345 5335 5325 5316 5307 5299 5291 5284 5277 5270 5264 5259 5254
5546 5539 5535 5530 5524 5518 5512 5506 5500 5492 5483 5474 5469 5465 5461 5455 5449 5443 5436 5429 5421 5413 5407 5399 5391 5381 5372 5362 5352 5342 5332 5323 5314 5305 5297 5289 5281 5274 5268 5262 5257 5251 5247
5536 5530 5524 5519 5513 5507 5501 5495 5488 5481 5474 5466 5458 5451 5447 5441 5436 5430 5424 5418 5411 5403 5395 5387 5378 5369 5359 5349 5339 5330 5321 5312 5304 5295 5288 5280 5273 5266 5261 5255 5250 5245 5241
5524 5518 5514 5508 5501 5495 5489 5483 5476 5469 5462 5456 5449 5442 5436 5430 5424 5418 5412 5406 5399 5392 5383 5375 5366 5357 5347 5337 5328 5318 5310 5302 5294 5286 5279 5273 5266 5260 5254 5249 5245 5240 5236
5513 5505 5500 5496 5490 5484 5478 5472 5465 5458 5452 5445 5438 5432 5426 5421 5415 5408 5401 5395 5388 5380 5372 5363 5354 5345 5336 5326 5317 5308 5300 5293 5286 5278 5272 5266 5260 5254 5249 5244 5240 5236 5232
5503 5496 5491 5485 5478 5472 5466 5460 5454 5447 5441 5434 5427 5420 5414 5410 5404 5397 5390 5383 5376 5368 5360 5351 5343 5334 5324 5315 5306 5298 5291 5284 5277 5271 5265 5259 5254 5249 5244 5240 5235 5232 5229
5491 5485 5479 5472 5467 5460 5454 5448 5442 5437 5430 5424 5417 5410 5404 5399 5393 5386 5379 5372 5365 5357 5348 5340 5331 5322 5313 5304 5296 5289 5282 5276 5269 5263 5258 5253 5249 5245 5240 5236 5232 5228 5226
5480 5475 5469 5462 5456 5449 5444 5437 5431 5425 5419 5413 5406 5400 5394 5388 5381 5375 5368 5361 5354 5346 5337 5329 5320 5312 5303 5294 5287 5281 5274 5268 5262 5257 5252 5248 5244 5240 5236 5232 5229 5226 5224
5469 5463 5457 5451 5445 5439 5433 5426 5420 5414 5408 5402 5396 5390 5384 5378 5371 5365 5358 5351 5343 5335 5327 5318 5310 5302 5294 5286 5280 5274 5268 5263 5258 5253 5248 5244 5240 5236 5232 5228 5226 5223 5221
5456 5451 5446 5440 5435 5429 5423 5417 5410 5404 5398 5391 5386 5380 5374 5368 5362 5355 5348 5341 5333 5325 5317 5309 5301 5293 5286 5280 5274 5269 5264 5259 5255 5250 5246 5242 5238 5234 5230 5227 5224 5222 5220